Location: DARK SKY Beskydy - Park tmavé oblohy, www.darkskybeskydy.cz
(49.4926°N, 18.5016°E)
Time: 10:25:24
(UTC+01:00)

Vanguard 3 - Visible Passes

Search period start: 25 February 2024 00:00
Search period end: 06 March 2024 00:00
Orbit: 508 x 3239 km, 33.4° (Epoch: 24 February)

Date Brightness Start Highest point End Pass type
(mag) Time Alt. Az. Time Alt. Az. Time Alt. Az.
25 Feb 10.8 18:15:27 10° S 18:28:11 23° SE 18:38:41 13° ESE visible
25 Feb 10.2 20:24:22 10° SW 20:41:26 39° SSE 20:42:59 39° SSE visible
25 Feb 10.6 22:37:53 10° WSW 22:47:18 31° SW 22:47:18 31° SW visible
26 Feb 10.5 19:07:00 10° SSW 19:22:30 33° SSE 19:30:21 25° ESE visible
26 Feb 10.2 21:18:33 10° WSW 21:34:39 44° S 21:34:39 44° S visible
26 Feb 11.0 23:33:25 10° WSW 23:38:57 21° WSW 23:38:57 21° WSW visible
27 Feb 10.9 17:51:09 10° S 18:03:59 24° SE 18:17:24 10° E visible
27 Feb 10.2 20:00:10 10° SW 20:17:14 41° SSE 20:21:57 37° SE visible
27 Feb 10.4 22:13:31 10° WSW 22:26:15 39° SW 22:26:15 39° SW visible
28 Feb 11.3 00:29:30 10° W 00:30:33 12° W 00:30:33 12° W visible
28 Feb 10.6 18:42:56 10° SSW 18:58:14 34° SSE 19:09:11 20° ESE visible
28 Feb 10.1 20:54:22 10° WSW 21:12:14 46° S 21:13:29 45° SSE visible
28 Feb 10.7 23:09:00 10° WSW 23:17:46 29° WSW 23:17:46 29° WSW visible
29 Feb 10.3 19:36:11 10° SW 19:52:57 42° SSE 20:00:39 32° SE visible
29 Feb 10.2 21:49:16 10° WSW 22:04:57 44° SSW 22:04:57 44° SSW visible
01 Mar 11.1 00:05:03 10° W 00:09:14 18° WSW 00:09:14 18° WSW visible
01 Mar 10.6 18:19:06 10° SSW 18:33:57 35° SSE 18:47:47 15° ESE visible
01 Mar 10.1 20:30:21 10° WSW 20:47:58 47° S 20:52:04 42° SSE visible
01 Mar 10.5 22:44:41 10° W 22:56:21 35° SW 22:56:21 35° SW visible
02 Mar 10.4 19:12:23 10° SW 19:28:38 43° SSE 19:39:09 26° ESE visible
02 Mar 10.1 21:25:11 10° WSW 21:43:01 46° S 21:43:26 46° S visible
02 Mar 10.9 23:40:42 10° W 23:47:42 23° WSW 23:47:42 23° WSW visible
03 Mar 10.6 17:55:28 10° SSW 18:09:41 36° SSE 18:26:11 10° E visible
03 Mar 10.2 20:06:31 10° WSW 20:23:38 47° S 20:30:28 37° SE visible
03 Mar 10.4 22:20:31 10° W 22:34:44 39° SW 22:34:44 39° SW visible
04 Mar 11.3 00:37:46 10° W 00:39:01 12° W 00:39:01 12° W visible
04 Mar 10.4 18:48:47 10° SW 19:04:18 44° SSE 19:17:28 20° ESE visible
04 Mar 10.1 21:01:16 10° WSW 21:18:42 46° S 21:21:44 44° S visible
04 Mar 10.8 23:16:28 10° W 23:26:01 27° WSW 23:26:01 27° WSW visible
05 Mar 10.3 19:42:53 10° WSW 19:59:18 47° S 20:08:43 31° SE visible
05 Mar 10.3 21:56:31 10° W 22:12:59 40° SSW 22:12:59 40° SSW visible
